Weather observations for the past three days for
Shungnak Airport
Imperial (Metric)
Date Time (akdt) Wind (mph) Vis. (mi.) Weather Sky Cond. Temperature (ºF) Relative Humidity Wind Chill (°F) Heat Index (°F) Pressure Precipitation (in)
Air Dwpt 6 hour altimeter (in) sea level (mb) 1 hr 3 hr 6 hr
Max. Min.
15 01:56 Calm 10.00 Overcast OVC055 54 43 67% 29.59 1002.3
15 00:56 Calm 10.00 Mostly Cloudy BKN055 BKN110 55 43 64% 29.57 1001.8
14 23:56 SW 5 10.00 Overcast OVC065 55 43 64% 29.55 1001.2
14 22:56 SW 6 10.00 Overcast OVC075 57 43 60% 29.53 1000.5
14 21:56 S 7 10.00 Mostly Cloudy BKN075 59 44.1 64 59 58% 29.51 999.6
14 20:56 S 9 10.00 Partly Cloudy SCT065 61 43 52% 29.5 999.2
14 19:56 S 9 10.00 Fair CLR 63 43 48% 29.49 998.8
14 18:56 S 9 G 16 10.00 A Few Clouds FEW049 63 46.9 56% 29.48 998.5
14 17:56 S 8 G 17 10.00 A Few Clouds FEW050 62.1 46 56% 29.47 998.3
14 16:56 SE 9 10.00 A Few Clouds FEW050 62.1 46 56% 29.46 998.0
14 15:56 SE 3 10.00 Overcast SCT032 BKN042 OVC060 60.1 50 61 52 70% 29.46 998.0 0.05
14 14:56 E 9 10.00 Partly Cloudy SCT026 59 51.1 75% 29.46 997.8
14 13:56 SE 8 10.00 Fair CLR 55.9 51.1 84% 29.44 997.4
14 12:56 SE 7 10.00 Light Rain BKN046 BKN055 OVC070 54 52 93% 29.43 997.1 0.03 0.05
14 11:56 S 8 10.00 Overcast FEW027 OVC041 53.1 50 89% 29.41 996.4
14 10:56 SE 10 G 17 10.00 Overcast BKN022 OVC028 53.1 52 96% 29.39 995.7 0.02
14 09:56 E 8 5.00 Light Rain Fog/Mist OVC010 55 55 55 52 100% 29.37 995.1 0.02 0.15
14 08:56 E 6 10.00 Light Rain SCT018 OVC027 55 54 96% 29.37 994.8
14 06:56 E 5 10.00 Light Rain FEW023 OVC033 53.1 53.1 100% 29.37 995.0 0.02 0.12
14 00:56 NW 3 8.00 Light Rain OVC075 54 52 93% 29.44 997.2 0.01 0.01
13 23:56 W 3 10.00 Light Rain OVC070 55.9 52 87% 29.46 997.8
13 22:56 NW 3 10.00 Light Rain BKN080 OVC090 57 52 83% 29.46 997.8
13 21:56 N 3 10.00 Overcast OVC120 60.1 52 64 59 75% 29.49 998.9
13 20:56 Calm 10.00 Light Rain FEW046 BKN085 OVC120 61 51.1 70% 29.51 999.7
13 19:56 Vrbl 3 10.00 Partly Cloudy FEW037 SCT095 63 48 58% 29.51 999.7
13 18:56 Calm 10.00 A Few Clouds FEW070 63 46.9 56% 29.53 1000.4
13 17:56 Vrbl 3 10.00 Overcast OVC060 63 48.9 60% 29.54 1000.6
13 16:56 Vrbl 6 10.00 Overcast OVC060 62.1 48 60% 29.56 1001.3
13 15:56 S 8 10.00 Overcast SCT037 BKN060 OVC070 63 48 64 55 58% 29.58 1002.1
13 14:56 SE 7 10.00 Overcast FEW032 BKN060 OVC070 61 48 63% 29.59 1002.3
13 13:56 SE 10 10.00 Overcast SCT030 SCT039 OVC070 61 48 63% 29.6 1002.7
13 12:56 E 9 10.00 Overcast FEW024 BKN042 OVC055 57.9 50 75% 29.61 1003.0
13 11:56 SE 7 10.00 Overcast SCT033 OVC043 57.9 48.9 72% 29.61 1003.1
13 10:56 E 12 10.00 Overcast OVC034 55.9 48.9 77% 29.61 1003.2
13 09:56 SE 8 10.00 Overcast FEW017 OVC033 55 48.9 55 52 80% 29.61 1003.1 0.01
13 08:56 E 9 10.00 Overcast OVC023 53.1 51.1 93% 29.61 1003.1 0.01
13 07:56 E 13 G 18 7.00 Overcast FEW022 OVC030 53.1 51.1 93% 29.61 1002.9
13 06:56 E 9 10.00 Overcast BKN045 OVC060 52 51.1 97% 29.6 1002.8
13 05:56 E 9 10.00 Overcast BKN003 BKN012 OVC090 52 52 100% 29.59 1002.4
13 04:56 E 7 10.00 Overcast OVC065 52 51.1 97% 29.6 1002.8
13 03:56 SE 6 10.00 Light Rain SCT041 BKN049 OVC070 52 50 60.1 52 93% 29.61 1002.9 0.03 0.18
13 02:56 SE 6 10.00 Light Rain OVC060 52 51.1 97% 29.61 1003.1 0.03
13 01:56 SE 7 10.00 Light Rain BKN045 OVC055 54 52 93% 29.61 1003.0 0.03
13 00:56 SE 6 10.00 Light Rain OVC065 54 51.1 90% 29.6 1002.6 0.09
12 23:56 E 8 10.00 Overcast OVC075 54 51.1 90% 29.59 1002.4 0.01
12 22:56 NE 10 10.00 Light Rain FEW050 OVC070 53.1 52 96% 29.6 1002.8 0.08
12 21:56 S 10 G 18 10.00 Overcast BKN049 OVC060 60.1 48 71.1 60.1 65% 29.6 1002.7
12 20:56 E 15 10.00 A Few Clouds FEW085 64.9 53.1 66% 29.58 1002.1
12 19:56 E 9 10.00 Mostly Cloudy BKN080 BKN100 64 53.1 68% 29.6 1002.7
12 18:56 E 10 10.00 Overcast OVC080 62.1 53.1 73% 29.61 1002.9
12 17:56 S 13 G 18 10.00 Light Rain FEW050 BKN065 OVC080 60.1 54 80% 29.65 1004.3
12 16:56 E 16 10.00 Mostly Cloudy SCT095 BKN110 68 48 49% 29.63 1003.8
12 15:56 E 15 G 20 10.00 Fair CLR 69.1 51.1 69.1 60.1 53% 29.66 1004.8
12 14:56 E 12 10.00 A Few Clouds FEW039 68 52 57% 29.71 1006.6
12 13:56 SE 13 10.00 Fair CLR 66.9 53.1 61% 29.72 1006.9
12 12:56 E 13 10.00 A Few Clouds FEW026 64.9 54 68% 29.77 1008.4
12 11:56 E 15 10.00 Partly Cloudy SCT024 63 53.1 70% 29.79 1009.1
12 10:56 E 15 10.00 Partly Cloudy SCT018 62.1 54 75% 29.8 1009.6
12 09:56 E 13 10.00 Fair CLR 60.1 55 60.1 52 84% 29.81 1009.9
12 08:56 E 9 10.00 Overcast FEW007 OVC075 55.9 55 97% 29.81 1009.8
12 07:56 E 9 10.00 Fair CLR 54 54 100% 29.84 1010.8
12 06:56 E 7 10.00 A Few Clouds FEW001 53.1 53.1 100% 29.85 1011.0
12 05:56 E 7 10.00 Fair CLR 53.1 53.1 100% 29.85 1011.0
12 04:56 SE 7 0.25 Fog OVC001 53.1 53.1 100% 29.85 1011.1
12 03:56 E 6 0.25 Fog SCT001 SCT011 BKN050 53.1 53.1 57.9 51.1 100% 29.85 1011.3
12 02:56 Calm 2.00 Fog/Mist SCT011 OVC022 54 54 100% 29.86 1011.5
Date Time (akdt) Wind (mph) Vis. (mi.) Weather Sky Cond. Air Dwpt Max. Min. Relative Humidity Wind Chill (°F) Heat Index (°F) altimeter (in) sea level (mb) 1 hr 3 hr 6 hr
6 hour
Temperature (ºF) Pressure Precipitation (in)